Location: Azul
(36.7830°S, 59.8500°W)
Time: 08:17:12
(UTC-03:00)

ISS - Pass Details

Date: 07 April 2020
Orbit: 417 x 419 km, 51.6° (Epoch: 31 May)

Event Time Altitude Azimuth Distance (km) Brightness Sun altitude
Exits shadow 05:53:10 - 197° (SSW) 1,771 -0.7 -17.9°
Reaches altitude 10° 05:54:38 10° 176° (S) 1,537 -0.8 -17.6°
Maximum altitude 05:55:25 11° 162° (SSE) 1,501 -0.7 -17.4°
Drops below altitude 10° 05:56:13 10° 149° (SSE) 1,536 -0.4 -17.3°
Sets 05:59:56 0° 108° (ESE) 2,399 1.7 -16.5°
